[[{"header":{"parameterUnit":"m.s-1","parameterCategory":1,"la1":30.2991,"la2":30.254,"lo1":-89.0895,"lo2":-89.0444,"dy":0.0017,"dx":0.0017,"nx":28,"ny":28,"refTime":"2024-08-08T09:00:00:Z","depth":0,"parameterNumber":2,"parameterNumberName":"U-component_of_WINDS"},"data":[0,0,0,0,0,0,0,0,0,0,0,0,0,0,0,0,0,0,0,0,0,0,0,0,0,0,0,0,0,0,0,0,0,0,0,0,0,0,0,0,0,0,0,0,0,0,0,0,0,0,0,0,0,0,0,0,0,0,3.1068,3.1068,0,3.1126,3.1127,3.1127,3.1026,3.1023,3.1019,3.1016,3.1079,3.1084,3.1089,0,0,0,0,0,0,0,0,0,0,0,0,0,3.0872,3.0876,3.1067,3.1068,3.1069,3.1126,3.1127,3.1127,3.1027,3.1023,3.1019,3.1015,3.1078,3.1084,3.1089,0,0,0,0,0,0,0,0,0,0,0,0,0,3.0946,3.0877,3.1067,3.1026,3.1022,3.1126,3.1127,3.1128,3.1028,3.1023,3.1017,3.1013,3.1076,3.1083,3.109,3.1238,0,0,3.1113,3.1116,0,0,0,0,0,0,0,0,3.0942,3.0954,3.1031,3.1029,3.1025,3.1063,3.1081,3.1165,3.1029,3.1026,3.1016,3.101,3.1079,3.1085,3.1108,3.1241,3.1244,3.1113,3.1118,3.1121,3.1123,0,0,0,0,0,0,0,3.0937,3.0951,3.1091,3.1032,3.1029,3.1005,3.101,3.1096,3.108,3.1026,3.1019,3.1027,3.1076,3.1101,3.1108,3.1245,3.1113,3.112,3.1124,3.1127,3.1503,3.1508,0,0,0,0,0,0,3.0937,3.0947,3.1089,3.1092,3.097,3.1013,3.1018,3.1056,3.1079,3.1078,3.1031,3.1022,3.1091,3.11,3.111,3.1286,3.1121,3.1128,3.1132,3.1497,3.1504,3.151,0,0,0,0,0,0,3.0933,3.095,3.1086,3.1018,3.1033,3.1021,3.1065,3.106,3.1085,3.1083,3.108,3.1059,3.1087,3.11,3.1207,3.1287,3.1131,3.1138,3.1491,3.1499,3.1507,3.1638,0,0,0,0,0,0,3.0928,3.095,3.1005,3.102,3.1037,3.1182,3.107,3.1065,3.1097,3.1086,3.1109,3.1108,3.1084,3.1197,3.1214,3.1294,3.1143,3.1484,3.1495,3.1505,3.1627,3.165,3.167,0,0,0,0,0,3.0921,3.104,3.1009,3.1026,3.1106,3.1187,3.1197,3.1167,3.1104,3.1161,3.1159,3.1107,3.1274,3.1208,3.1227,3.1311,3.1478,3.1491,3.1504,3.1617,3.1645,3.1669,0,0,0,0,0,0,3.1037,3.1041,3.1006,3.1133,3.116,3.1169,3.124,3.1197,3.1243,3.1231,3.1192,3.1198,3.1314,3.1322,3.1249,3.1455,3.1366,3.1383,3.1446,3.1473,3.1494,3.1491,3.1149,0,0,0,0,0,3.1077,3.1141,3.1141,3.1254,3.1269,3.1252,3.1286,3.126,3.1287,3.1298,3.1304,3.1334,3.1392,3.1432,3.1487,3.1626,3.1631,3.1693,3.1714,3.1732,3.1748,3.1824,3.1852,3.1552,3.1552,3.1551,0,0,3.1161,3.1171,3.1214,3.1277,3.1295,3.1363,3.1263,3.1339,3.139,3.131,3.1412,3.1417,3.1447,3.1571,3.1626,3.1582,3.1832,3.1748,3.1762,3.1769,3.184,3.1868,3.1894,3.156,3.1559,3.1557,0,0,3.1349,3.1363,3.1458,3.1478,3.1505,3.1493,3.1516,3.1532,3.1532,3.1633,3.1575,3.1635,3.1737,3.1761,3.1787,3.1983,3.1937,3.2002,3.2116,3.219,3.2214,3.2235,3.2307,3.2333,3.2017,3.2017,3.2018,0,3.1451,3.1551,3.1513,3.1594,3.1624,3.1553,3.165,3.1671,3.1716,3.1739,3.1687,3.1815,3.1829,3.1959,3.2007,3.2029,3.2056,3.2,3.2213,3.2234,3.2253,3.2321,3.2348,3.2025,3.2024,3.2023,3.2023,0,3.1675,3.1745,3.1819,3.1863,3.19,3.1989,3.1966,3.2009,3.1979,3.1973,3.2077,3.2092,3.2149,3.2177,3.2149,3.2303,3.2275,3.2219,3.213,3.229,3.2354,3.2379,3.2036,3.2034,3.2031,3.2029,0,0,3.1941,3.1961,3.199,3.2009,3.2033,3.2087,3.2173,3.2227,3.2265,3.2298,3.237,3.2457,3.2406,3.2435,3.2409,3.2474,3.2631,3.241,3.241,3.2453,3.2804,3.2847,3.2878,3.2599,3.2604,3.2608,3.2802,0,3.213,3.2276,3.2245,3.2389,3.2454,3.2387,3.2461,3.2485,3.2481,3.2537,3.2532,3.2596,3.2522,3.2539,3.26,3.2599,3.2701,3.2584,3.2668,3.2671,3.2666,3.2911,3.2958,3.3141,3.2826,3.283,3.2833,0,3.2371,3.2412,3.2563,3.2577,3.2603,3.2671,3.2718,3.2771,3.2796,3.2789,3.2821,3.2782,3.2868,3.2775,3.2894,3.2815,3.2847,3.2851,3.2858,3.2867,3.2765,3.293,3.3198,3.3227,3.2872,3.2869,3.2866,0,3.2553,3.2645,3.2748,3.2766,3.2784,3.2834,3.2844,3.2864,3.2899,3.294,3.2962,3.3013,3.3042,3.3083,3.3059,3.2993,3.3183,3.3088,3.3181,3.3182,3.3227,3.3225,3.3507,3.3243,3.3242,3.3242,3.3241,0,3.2769,3.2865,3.283,3.2893,3.2999,3.2961,3.3066,3.3069,3.3087,3.3151,3.3095,3.3156,3.312,3.3179,3.316,3.3263,3.3275,3.3273,3.3268,3.328,3.3281,3.3303,3.3291,3.3249,3.3247,3.3246,3.3245,0,3.2992,3.2972,3.3079,3.3087,3.3091,3.3169,3.3177,3.3236,3.3227,3.3308,3.3325,3.3311,3.3377,3.3357,3.3428,3.3416,3.3546,3.3523,3.3538,3.3533,3.3629,3.3621,3.3937,3.3978,3.3685,3.3688,3.369,0,3.3133,3.3205,3.322,3.3258,3.3272,3.3334,3.3368,3.3333,3.3372,3.3406,3.3463,3.3523,3.357,3.3679,3.3676,3.373,3.371,3.3817,3.3718,3.3728,3.3715,3.3712,3.372,3.3838,3.3841,3.3844,3.3846,0,3.3386,3.3372,3.3424,3.3472,3.3515,3.3551,3.3583,3.3618,3.3584,3.3631,3.3697,3.3733,3.3805,3.3867,3.3916,3.3927,3.3883,3.3876,3.3901,3.3916,3.3923,3.3923,3.3595,3.387,3.3868,3.3866,3.3865,3.3864,3.3574,3.3635,3.3656,3.3715,3.3735,3.3765,3.3822,3.3819,3.3873,3.3929,3.3904,3.3981,3.4005,3.4066,3.4084,3.4144,3.4103,3.4139,3.4149,3.4159,3.4172,3.3911,3.4153,3.4152,3.4151,3.4151,3.415,0,3.3827,3.3836,3.3891,3.3936,3.3983,3.3934,3.3966,3.4009,3.4077,3.4102,3.4149,3.4226,3.4285,3.4286,3.4342,3.439,3.4371,3.4406,3.4404,3.4408,3.4204,3.4178,3.4421,3.4421,3.442,3.442,3.442,3.442,3.3964,3.4066,3.4054,3.4165,3.4173,3.4247,3.427,3.4299,3.4319,3.4406,3.4455,3.4454,3.447,3.4526,3.4579,3.4578,3.4602,3.4646,3.4638,3.4448,3.4422,3.4396,3.4372,3.4651,3.4651,3.4836,3.4838,3.4839]},{"header":{"parameterUnit":"m.s-1","parameterCategory":1,"la1":30.2991,"la2":30.254,"lo1":-89.0895,"lo2":-89.0444,"dy":0.0017,"dx":0.0017,"nx":28,"ny":28,"refTime":"2024-08-08T09:00:00:Z","depth":0,"parameterNumber":3,"parameterNumberName":"V-component_of_WINDS"},"data":[0,0,0,0,0,0,0,0,0,0,0,0,0,0,0,0,0,0,0,0,0,0,0,0,0,0,0,0,0,0,0,0,0,0,0,0,0,0,0,0,0,0,0,0,0,0,0,0,0,0,0,0,0,0,0,0,0,0,-0.1166,-0.1165,0,-0.1085,-0.1084,-0.1083,-0.1046,-0.1046,-0.1046,-0.1046,-0.0964,-0.0962,-0.096,0,0,0,0,0,0,0,0,0,0,0,0,0,-0.1291,-0.1289,-0.1166,-0.1165,-0.1164,-0.1085,-0.1084,-0.1083,-0.1046,-0.1046,-0.1046,-0.1046,-0.0965,-0.0962,-0.096,0,0,0,0,0,0,0,0,0,0,0,0,0,-0.1226,-0.1288,-0.1166,-0.1136,-0.1133,-0.1085,-0.1084,-0.1082,-0.1046,-0.1046,-0.1046,-0.1046,-0.0966,-0.0963,-0.0959,-0.0936,0,0,-0.0949,-0.0948,0,0,0,0,0,0,0,0,-0.1229,-0.1221,-0.1142,-0.1138,-0.1134,-0.1075,-0.1098,-0.1034,-0.1046,-0.1079,-0.1046,-0.1046,-0.1001,-0.0995,-0.098,-0.0933,-0.0929,-0.0949,-0.0947,-0.0945,-0.0944,0,0,0,0,0,0,0,-0.1234,-0.1224,-0.1134,-0.114,-0.1136,-0.1127,-0.1118,-0.1085,-0.1041,-0.1076,-0.1073,-0.1064,-0.0999,-0.0983,-0.0977,-0.0928,-0.0949,-0.0946,-0.0944,-0.0943,-0.0858,-0.0858,0,0,0,0,0,0,-0.1243,-0.1228,-0.1137,-0.1132,-0.1183,-0.1125,-0.1114,-0.1094,-0.1041,-0.1033,-0.1064,-0.1062,-0.0989,-0.0981,-0.0974,-0.0944,-0.0945,-0.0942,-0.094,-0.0858,-0.0858,-0.0858,0,0,0,0,0,0,-0.1246,-0.1235,-0.114,-0.1179,-0.1166,-0.1122,-0.11,-0.1093,-0.1076,-0.1032,-0.1024,-0.1055,-0.0988,-0.0979,-0.0946,-0.094,-0.0941,-0.0938,-0.0859,-0.0858,-0.0858,-0.0883,0,0,0,0,0,0,-0.125,-0.1237,-0.1227,-0.1179,-0.1164,-0.1112,-0.11,-0.1091,-0.107,-0.1068,-0.1021,-0.1014,-0.0988,-0.0951,-0.0943,-0.0936,-0.0935,-0.0859,-0.0858,-0.0858,-0.0882,-0.0883,-0.0884,0,0,0,0,0,-0.1254,-0.1238,-0.1227,-0.1216,-0.1151,-0.1112,-0.1104,-0.1074,-0.107,-0.106,-0.1032,-0.1015,-0.0943,-0.0948,-0.0938,-0.093,-0.0859,-0.0859,-0.0858,-0.0882,-0.0883,-0.0884,0,0,0,0,0,0,-0.1286,-0.1231,-0.1218,-0.1185,-0.1154,-0.1106,-0.1093,-0.1076,-0.1045,-0.1044,-0.1009,-0.0998,-0.0968,-0.0946,-0.0953,-0.0905,-0.0899,-0.0897,-0.0921,-0.0922,-0.0923,-0.0928,-0.0932,0,0,0,0,0,-0.129,-0.1262,-0.1215,-0.1191,-0.1175,-0.1137,-0.1119,-0.1098,-0.1064,-0.1051,-0.102,-0.0988,-0.0958,-0.0939,-0.0908,-0.0879,-0.0869,-0.0869,-0.087,-0.0871,-0.0869,-0.0852,-0.0851,-0.0856,-0.0856,-0.0856,0,0,-0.1296,-0.1262,-0.1247,-0.1196,-0.1169,-0.1142,-0.1126,-0.1097,-0.1076,-0.1046,-0.1013,-0.0989,-0.0951,-0.092,-0.0905,-0.0901,-0.0865,-0.087,-0.0871,-0.0869,-0.0851,-0.0851,-0.085,-0.0856,-0.0856,-0.0856,0,0,-0.1293,-0.1265,-0.1241,-0.1215,-0.1174,-0.1148,-0.1143,-0.1098,-0.108,-0.1046,-0.1023,-0.0999,-0.0947,-0.0921,-0.0901,-0.0889,-0.0873,-0.0881,-0.0886,-0.0869,-0.0869,-0.0868,-0.0864,-0.0863,-0.0879,-0.0879,-0.0879,0,-0.1306,-0.1263,-0.1232,-0.1204,-0.1182,-0.1154,-0.113,-0.1106,-0.1058,-0.1043,-0.104,-0.0975,-0.0947,-0.0909,-0.0906,-0.0891,-0.0884,-0.0885,-0.0871,-0.0871,-0.087,-0.0865,-0.0863,-0.088,-0.088,-0.088,-0.088,0,-0.1281,-0.1252,-0.1238,-0.1191,-0.1168,-0.1143,-0.1108,-0.1088,-0.107,-0.1046,-0.1011,-0.0977,-0.094,-0.0929,-0.0912,-0.0889,-0.0888,-0.0878,-0.0871,-0.0871,-0.0866,-0.0864,-0.0882,-0.0881,-0.0881,-0.0881,0,0,-0.1296,-0.1232,-0.1228,-0.1206,-0.1159,-0.1136,-0.111,-0.1073,-0.1057,-0.1025,-0.1002,-0.0959,-0.095,-0.0928,-0.0907,-0.0893,-0.0885,-0.0885,-0.0883,-0.0886,-0.0858,-0.0865,-0.0863,-0.0874,-0.0874,-0.0873,-0.0861,0,-0.1286,-0.1237,-0.1208,-0.117,-0.1143,-0.1115,-0.1092,-0.1061,-0.1038,-0.1011,-0.0986,-0.0956,-0.0946,-0.0932,-0.0917,-0.0889,-0.0879,-0.089,-0.0853,-0.0852,-0.0862,-0.0861,-0.0868,-0.0858,-0.0859,-0.0858,-0.0858,0,-0.1268,-0.1237,-0.1196,-0.1153,-0.114,-0.112,-0.1083,-0.1058,-0.1023,-0.1007,-0.0982,-0.0961,-0.0932,-0.0929,-0.0889,-0.0897,-0.088,-0.0864,-0.0863,-0.0858,-0.0855,-0.0855,-0.0854,-0.0852,-0.0855,-0.0855,-0.0855,0,-0.1283,-0.123,-0.1199,-0.1181,-0.113,-0.1116,-0.1094,-0.1059,-0.1038,-0.1007,-0.0993,-0.0959,-0.094,-0.0915,-0.0886,-0.0886,-0.0849,-0.0843,-0.0835,-0.0836,-0.0828,-0.0829,-0.0823,-0.0818,-0.0818,-0.0818,-0.0818,0,-0.1275,-0.1251,-0.1204,-0.1185,-0.1158,-0.1125,-0.1099,-0.1075,-0.1044,-0.102,-0.0995,-0.0973,-0.0936,-0.091,-0.0887,-0.0858,-0.085,-0.0836,-0.083,-0.0838,-0.084,-0.0826,-0.0826,-0.0818,-0.0818,-0.0818,-0.0818,0,-0.1286,-0.1254,-0.1218,-0.1172,-0.116,-0.1142,-0.1103,-0.1083,-0.1058,-0.1028,-0.102,-0.0981,-0.0949,-0.0917,-0.0874,-0.0859,-0.083,-0.0822,-0.0841,-0.0838,-0.0832,-0.0833,-0.0817,-0.0813,-0.0812,-0.0812,-0.0812,0,-0.1283,-0.1264,-0.1216,-0.1198,-0.1176,-0.1147,-0.1126,-0.1093,-0.1072,-0.1031,-0.1017,-0.0982,-0.0953,-0.0904,-0.0872,-0.0839,-0.083,-0.0827,-0.0825,-0.0834,-0.083,-0.0831,-0.0829,-0.0828,-0.0828,-0.0828,-0.0828,0,-0.128,-0.1265,-0.1236,-0.12,-0.1176,-0.1146,-0.1116,-0.1103,-0.1065,-0.1043,-0.1009,-0.0986,-0.0942,-0.0909,-0.0872,-0.085,-0.0833,-0.0829,-0.0826,-0.0833,-0.0845,-0.0838,-0.0844,-0.083,-0.083,-0.0829,-0.0829,-0.0829,-0.1284,-0.1266,-0.1229,-0.1197,-0.1171,-0.1143,-0.1122,-0.1095,-0.1066,-0.1027,-0.101,-0.0976,-0.0942,-0.0891,-0.0869,-0.0843,-0.0838,-0.0833,-0.0832,-0.0831,-0.0832,-0.085,-0.0836,-0.0836,-0.0836,-0.0836,-0.0836,0,-0.128,-0.1255,-0.1226,-0.1184,-0.1159,-0.1144,-0.111,-0.109,-0.1061,-0.103,-0.1001,-0.0963,-0.0931,-0.0897,-0.0862,-0.0848,-0.0839,-0.084,-0.084,-0.0836,-0.0839,-0.0845,-0.0848,-0.0848,-0.0848,-0.0848,-0.0848,-0.0848,-0.1275,-0.1243,-0.1224,-0.1179,-0.1155,-0.1121,-0.1103,-0.1077,-0.1052,-0.101,-0.0983,-0.0961,-0.0929,-0.0892,-0.0862,-0.0853,-0.0841,-0.0844,-0.0833,-0.0836,-0.0835,-0.0835,-0.084,-0.0842,-0.0842,-0.0832,-0.0832,-0.0832]}]]